Time,TemperatureF,DewpointF,PressureIn,WindDirection,WindDirectionDegrees,WindSpeedMPH,WindSpeedGustMPH,Humidity,HourlyPrecipIn,Conditions,Clouds,dailyrainin,SolarRadiationWatts/m^2,SoftwareType,DateUTC
2013-02-16 00:02:00,24.0,23.0,-100.00,NNW,338,2.0,4.0,94,0.00,,,-99.99,0.000000,,2013-02-16 07:02:00,
2013-02-16 00:11:00,24.0,23.0,-100.00,NNW,338,2.0,4.0,94,0.00,,,-99.99,0.000000,,2013-02-16 07:11:00,
2013-02-16 00:42:00,22.0,21.0,-100.00,North,6,2.0,4.0,94,0.00,,,0.00,0.000000,,2013-02-16 07:42:00,
2013-02-16 00:53:00,22.0,21.0,-100.00,North,6,2.0,4.0,94,0.00,,,0.00,0.000000,,2013-02-16 07:53:00,
2013-02-16 01:01:00,22.0,21.0,-100.00,North,6,2.0,4.0,94,0.00,,,0.00,0.000000,,2013-02-16 08:01:00,
2013-02-16 01:11:00,22.0,21.0,-100.00,North,6,2.0,4.0,94,0.00,,,0.00,0.000000,,2013-02-16 08:11:00,
2013-02-16 01:42:00,20.0,19.0,-100.00,ENE,57,1.0,4.0,94,0.00,,,0.00,0.000000,,2013-02-16 08:42:00,
2013-02-16 01:52:00,20.0,19.0,-100.00,ENE,57,1.0,4.0,94,0.00,,,0.00,0.000000,,2013-02-16 08:52:00,
2013-02-16 02:01:00,20.0,19.0,-100.00,ENE,57,1.0,4.0,94,0.00,,,0.00,0.000000,,2013-02-16 09:01:00,
2013-02-16 02:11:00,20.0,19.0,-100.00,ENE,57,1.0,4.0,94,0.00,,,0.00,0.000000,,2013-02-16 09:11:00,
2013-02-16 02:42:00,19.0,17.0,-100.00,NE,44,1.0,3.0,93,0.00,,,0.00,0.000000,,2013-02-16 09:42:00,
2013-02-16 02:52:00,19.0,17.0,-100.00,NE,44,1.0,3.0,93,0.00,,,0.00,0.000000,,2013-02-16 09:52:00,
2013-02-16 03:01:00,19.0,17.0,-100.00,NE,44,1.0,3.0,93,0.00,,,0.00,0.000000,,2013-02-16 10:01:00,
2013-02-16 03:11:00,19.0,17.0,-100.00,NE,44,1.0,3.0,93,0.00,,,0.00,0.000000,,2013-02-16 10:11:00,
2013-02-16 03:42:00,17.0,15.0,-100.00,ENE,67,1.0,3.0,91,0.00,,,0.00,0.000000,,2013-02-16 10:42:00,
2013-02-16 03:52:00,17.0,15.0,-100.00,ENE,67,1.0,3.0,91,0.00,,,0.00,0.000000,,2013-02-16 10:52:00,
2013-02-16 04:02:00,17.0,15.0,-100.00,ENE,67,1.0,3.0,91,0.00,,,0.00,0.000000,,2013-02-16 11:02:00,
2013-02-16 04:11:00,17.0,15.0,-100.00,ENE,67,1.0,3.0,91,0.00,,,0.00,0.000000,,2013-02-16 11:11:00,
2013-02-16 04:42:00,16.0,14.0,-100.00,ESE,111,0.0,2.0,91,0.00,,,0.00,0.000000,,2013-02-16 11:42:00,
2013-02-16 04:52:00,16.0,14.0,-100.00,ESE,111,0.0,2.0,91,0.00,,,0.00,0.000000,,2013-02-16 11:52:00,
2013-02-16 05:01:00,16.0,14.0,-100.00,ESE,111,0.0,2.0,91,0.00,,,0.00,0.000000,,2013-02-16 12:01:00,
2013-02-16 05:12:00,16.0,14.0,-100.00,ESE,111,0.0,2.0,91,0.00,,,0.00,0.000000,,2013-02-16 12:12:00,
2013-02-16 05:42:00,15.0,13.0,-100.00,SE,128,1.0,3.0,91,0.00,,,0.00,0.000000,,2013-02-16 12:42:00,
2013-02-16 05:52:00,15.0,13.0,-100.00,SE,128,1.0,3.0,91,0.00,,,0.00,0.000000,,2013-02-16 12:52:00,
2013-02-16 06:01:00,15.0,13.0,-100.00,SE,128,1.0,3.0,91,0.00,,,0.00,0.000000,,2013-02-16 13:01:00,
2013-02-16 07:42:00,13.0,10.0,-100.00,NE,55,1.0,3.0,88,-99.99,,,-99.99,0.000000,,2013-02-16 14:42:00,
2013-02-16 07:52:00,13.0,10.0,-100.00,NE,55,1.0,3.0,88,-99.99,,,-99.99,0.000000,,2013-02-16 14:52:00,
2013-02-16 08:01:00,13.0,10.0,-100.00,NE,55,1.0,3.0,88,-99.99,,,-99.99,0.000000,,2013-02-16 15:01:00,
2013-02-16 08:42:00,13.0,10.0,-100.00,NNE,25,2.0,4.0,88,-99.99,,,0.00,8.000000,,2013-02-16 15:42:00,
2013-02-16 08:52:00,13.0,10.0,-100.00,NNE,25,2.0,4.0,88,-99.99,,,0.00,8.000000,,2013-02-16 15:52:00,
2013-02-16 09:01:00,13.0,10.0,-100.00,NNE,25,2.0,4.0,88,-99.99,,,0.00,8.000000,,2013-02-16 16:01:00,
2013-02-16 09:42:00,23.0,21.0,-100.00,ESE,109,1.0,2.0,93,-99.99,,,0.00,78.000000,,2013-02-16 16:42:00,
2013-02-16 09:52:00,23.0,21.0,-100.00,ESE,109,1.0,2.0,93,-99.99,,,0.00,78.000000,,2013-02-16 16:52:00,
2013-02-16 10:01:00,23.0,21.0,-100.00,ESE,109,1.0,2.0,93,-99.99,,,0.00,78.000000,,2013-02-16 17:01:00,
2013-02-16 10:11:00,23.0,21.0,-100.00,ESE,109,1.0,2.0,93,-99.99,,,0.00,78.000000,,2013-02-16 17:11:00,
2013-02-16 10:42:00,26.0,24.0,-100.00,SSE,147,1.0,2.0,91,0.00,,,0.00,83.000000,,2013-02-16 17:42:00,
2013-02-16 10:52:00,26.0,24.0,-100.00,SSE,147,1.0,2.0,91,0.00,,,0.00,83.000000,,2013-02-16 17:52:00,
2013-02-16 11:01:00,26.0,24.0,-100.00,SSE,147,1.0,2.0,91,0.00,,,0.00,83.000000,,2013-02-16 18:01:00,
2013-02-16 11:11:00,26.0,24.0,-100.00,SSE,147,1.0,2.0,91,0.00,,,0.00,83.000000,,2013-02-16 18:11:00,
2013-02-16 11:42:00,34.0,32.0,-100.00,SE,125,1.0,3.0,91,0.00,,,0.00,177.000000,,2013-02-16 18:42:00,
2013-02-16 11:52:00,34.0,32.0,-100.00,SE,125,1.0,3.0,91,0.00,,,0.00,177.000000,,2013-02-16 18:52:00,
2013-02-16 12:02:00,34.0,32.0,-100.00,SE,125,1.0,3.0,91,0.00,,,0.00,177.000000,,2013-02-16 19:02:00,
2013-02-16 12:11:00,34.0,32.0,-100.00,SE,125,1.0,3.0,91,0.00,,,0.00,177.000000,,2013-02-16 19:11:00,
2013-02-16 12:42:00,38.0,29.0,-100.00,South,176,2.0,3.0,71,0.00,,,0.00,143.000000,,2013-02-16 19:42:00,
2013-02-16 12:52:00,38.0,29.0,-100.00,South,176,2.0,3.0,71,0.00,,,0.00,143.000000,,2013-02-16 19:52:00,
2013-02-16 13:01:00,38.0,29.0,-100.00,South,176,2.0,3.0,71,0.00,,,0.00,143.000000,,2013-02-16 20:01:00,
2013-02-16 13:11:00,38.0,29.0,-100.00,South,176,2.0,3.0,71,0.00,,,0.00,143.000000,,2013-02-16 20:11:00,
2013-02-16 13:42:00,38.0,28.0,-100.00,SSE,158,2.0,5.0,66,0.00,,,0.00,135.000000,,2013-02-16 20:42:00,
2013-02-16 13:52:00,38.0,28.0,-100.00,SSE,158,2.0,5.0,66,0.00,,,0.00,135.000000,,2013-02-16 20:52:00,
2013-02-16 14:02:00,38.0,28.0,-100.00,SSE,158,2.0,5.0,66,0.00,,,0.00,135.000000,,2013-02-16 21:02:00,
2013-02-16 14:11:00,38.0,28.0,-100.00,SSE,158,2.0,5.0,66,0.00,,,0.00,135.000000,,2013-02-16 21:11:00,
2013-02-16 14:42:00,44.0,33.0,-100.00,NNE,29,2.0,5.0,64,0.00,,,0.00,213.000000,,2013-02-16 21:42:00,
2013-02-16 14:52:00,44.0,33.0,-100.00,NNE,29,2.0,5.0,64,0.00,,,0.00,213.000000,,2013-02-16 21:52:00,
2013-02-16 15:01:00,44.0,33.0,-100.00,NNE,29,2.0,5.0,64,0.00,,,0.00,213.000000,,2013-02-16 22:01:00,
2013-02-16 15:42:00,42.0,28.0,-100.00,SSE,157,3.0,6.0,57,-99.99,,,0.00,265.000000,,2013-02-16 22:42:00,
2013-02-16 15:52:00,42.0,28.0,-100.00,SSE,157,3.0,6.0,57,-99.99,,,0.00,265.000000,,2013-02-16 22:52:00,
2013-02-16 16:02:00,42.0,28.0,-100.00,SSE,157,3.0,6.0,57,-99.99,,,0.00,265.000000,,2013-02-16 23:02:00,
2013-02-16 16:11:00,42.0,28.0,-100.00,SSE,157,3.0,6.0,57,-99.99,,,0.00,265.000000,,2013-02-16 23:11:00,
2013-02-16 16:42:00,40.0,29.0,-100.00,SSW,194,2.0,5.0,65,0.00,,,0.00,29.000000,,2013-02-16 23:42:00,
2013-02-16 16:52:00,40.0,29.0,-100.00,SSW,194,2.0,5.0,65,0.00,,,0.00,29.000000,,2013-02-16 23:52:00,
2013-02-16 17:02:00,40.0,29.0,-100.00,SSW,194,2.0,5.0,65,0.00,,,0.00,29.000000,,2013-02-17 00:02:00,
2013-02-16 17:11:00,40.0,29.0,-100.00,SSW,194,2.0,5.0,65,0.00,,,0.00,29.000000,,2013-02-17 00:11:00,
2013-02-16 17:32:00,38.0,29.0,-100.00,ESE,108,0.0,5.0,70,0.00,,,0.00,23.000000,,2013-02-17 00:32:00,
2013-02-16 17:42:00,38.0,29.0,-100.00,ESE,108,0.0,5.0,70,0.00,,,0.00,23.000000,,2013-02-17 00:42:00,
2013-02-16 17:52:00,38.0,29.0,-100.00,ESE,108,0.0,5.0,70,0.00,,,0.00,23.000000,,2013-02-17 00:52:00,
2013-02-16 18:01:00,38.0,29.0,-100.00,ESE,108,0.0,5.0,70,0.00,,,0.00,23.000000,,2013-02-17 01:01:00,
2013-02-16 18:11:00,38.0,29.0,-100.00,ESE,108,0.0,5.0,70,0.00,,,0.00,23.000000,,2013-02-17 01:11:00,
2013-02-16 18:42:00,37.0,33.0,-100.00,WSW,240,3.0,11.0,85,0.01,,,0.01,6.000000,,2013-02-17 01:42:00,
2013-02-16 18:52:00,37.0,33.0,-100.00,WSW,240,3.0,11.0,85,0.01,,,0.01,6.000000,,2013-02-17 01:52:00,
2013-02-16 19:01:00,37.0,33.0,-100.00,WSW,240,3.0,11.0,85,0.01,,,0.01,6.000000,,2013-02-17 02:01:00,
2013-02-16 19:11:00,37.0,33.0,-100.00,WSW,240,3.0,11.0,85,0.01,,,0.01,6.000000,,2013-02-17 02:11:00,
2013-02-16 19:42:00,36.0,34.0,-100.00,SW,219,5.0,10.0,91,0.02,,,0.03,0.000000,,2013-02-17 02:42:00,
2013-02-16 19:52:00,36.0,34.0,-100.00,SW,219,5.0,10.0,91,0.02,,,0.03,0.000000,,2013-02-17 02:52:00,
2013-02-16 20:01:00,36.0,34.0,-100.00,SW,219,5.0,10.0,91,0.02,,,0.03,0.000000,,2013-02-17 03:01:00,
2013-02-16 20:11:00,36.0,34.0,-100.00,SW,219,5.0,10.0,91,0.02,,,0.03,0.000000,,2013-02-17 03:11:00,
2013-02-16 20:42:00,35.0,32.0,-100.00,NNW,337,3.0,10.0,90,0.01,,,0.04,0.000000,,2013-02-17 03:42:00,
2013-02-16 20:52:00,35.0,32.0,-100.00,NNW,337,3.0,10.0,90,0.01,,,0.04,0.000000,,2013-02-17 03:52:00,
2013-02-16 21:01:00,35.0,32.0,-100.00,NNW,337,3.0,10.0,90,0.01,,,0.04,0.000000,,2013-02-17 04:01:00,
2013-02-16 21:11:00,35.0,32.0,-100.00,NNW,337,3.0,10.0,90,0.01,,,0.04,0.000000,,2013-02-17 04:11:00,
2013-02-16 21:42:00,33.0,31.0,-100.00,NW,326,3.0,8.0,94,0.00,,,0.04,0.000000,,2013-02-17 04:42:00,
2013-02-16 21:52:00,33.0,31.0,-100.00,NW,326,3.0,8.0,94,0.00,,,0.04,0.000000,,2013-02-17 04:52:00,
2013-02-16 22:01:00,33.0,31.0,-100.00,NW,326,3.0,8.0,94,0.00,,,0.04,0.000000,,2013-02-17 05:01:00,
2013-02-16 22:11:00,33.0,31.0,-100.00,NW,326,3.0,8.0,94,0.00,,,0.04,0.000000,,2013-02-17 05:11:00,
2013-02-16 22:42:00,33.0,31.0,-100.00,South,176,4.0,9.0,91,0.00,,,0.04,0.000000,,2013-02-17 05:42:00,
2013-02-16 22:52:00,33.0,31.0,-100.00,South,176,4.0,9.0,91,0.00,,,0.04,0.000000,,2013-02-17 05:52:00,
2013-02-16 23:02:00,33.0,31.0,-100.00,South,176,4.0,9.0,91,0.00,,,0.04,0.000000,,2013-02-17 06:02:00,
2013-02-16 23:11:00,33.0,31.0,-100.00,South,176,4.0,9.0,91,0.00,,,0.04,0.000000,,2013-02-17 06:11:00,
2013-02-16 23:32:00,31.0,27.0,-100.00,ENE,63,3.0,7.0,85,0.00,,,0.04,0.000000,,2013-02-17 06:32:00,
2013-02-16 23:42:00,31.0,27.0,-100.00,ENE,63,3.0,7.0,85,0.00,,,0.04,0.000000,,2013-02-17 06:42:00,
2013-02-16 23:52:00,31.0,27.0,-100.00,ENE,63,3.0,7.0,85,0.00,,,0.04,0.000000,,2013-02-17 06:52:00,